date,time,SUV Intensity [MED/Hr],UV Index,Daily total [MED],Since Last [MED]
08/03/2022,00:05:30,0.000,0.0,0.0,0.0
08/03/2022,00:06:30,0.000,0.0,0.0,0.0
08/03/2022,00:07:29,0.000,0.0,0.0,0.0
08/03/2022,00:08:30,0.000,0.0,0.0,0.0
08/03/2022,00:09:30,0.000,0.0,0.0,0.0
08/03/2022,00:10:29,-0.000,0.0,0.0,0.0
08/03/2022,00:11:29,0.000,0.0,0.0,0.0
08/03/2022,00:12:38,-0.001,0.0,0.0,0.0
08/03/2022,00:13:30,0.000,0.0,0.0,0.0
08/03/2022,00:14:29,-0.001,0.0,0.0,0.0
08/03/2022,00:15:29,0.000,0.0,0.0,0.0
08/03/2022,00:16:30,0.000,0.0,0.0,0.0
08/03/2022,00:17:29,-0.001,0.0,0.0,0.0
08/03/2022,00:18:30,0.001,0.0,0.0,0.0
08/03/2022,00:19:30,-0.001,0.0,0.0,0.0
08/03/2022,00:20:30,0.000,0.0,0.0,0.0
08/03/2022,00:21:29,-0.001,0.0,0.0,0.0
08/03/2022,00:22:38,0.000,0.0,0.0,0.0
08/03/2022,00:23:40,-0.001,0.0,0.0,0.0
08/03/2022,00:24:30,-0.001,0.0,0.0,0.0
08/03/2022,00:25:30,-0.001,0.0,0.0,0.0
08/03/2022,00:26:29,0.000,0.0,0.0,0.0
08/03/2022,00:27:29,0.000,0.0,0.0,0.0
08/03/2022,00:28:30,0.000,0.0,0.0,0.0
08/03/2022,00:29:30,0.000,0.0,0.0,0.0
08/03/2022,00:30:31,0.000,0.0,0.0,0.0
08/03/2022,00:31:30,0.001,0.0,0.0,0.0
08/03/2022,00:32:30,0.001,0.0,0.0,0.0
08/03/2022,00:33:38,0.000,0.0,0.0,0.0
08/03/2022,00:34:30,-0.000,0.0,0.0,0.0
08/03/2022,00:35:29,0.000,0.0,0.0,0.0
08/03/2022,00:36:29,0.001,0.0,0.0,0.0
08/03/2022,00:37:30,0.000,0.0,0.0,0.0
08/03/2022,00:38:29,0.000,0.0,0.0,0.0
08/03/2022,00:39:30,0.001,0.0,0.0,0.0
08/03/2022,00:40:30,0.000,0.0,0.0,0.0
08/03/2022,00:41:29,0.000,0.0,0.0,0.0
08/03/2022,00:42:29,0.000,0.0,0.0,0.0
08/03/2022,00:43:30,0.000,0.0,0.0,0.0
08/03/2022,00:44:38,0.000,0.0,0.0,0.0
08/03/2022,00:45:30,0.000,0.0,0.0,0.0
08/03/2022,00:46:30,0.001,0.0,0.0,0.0
08/03/2022,00:47:30,-0.000,0.0,0.0,0.0
08/03/2022,00:48:30,0.000,0.0,0.0,0.0
08/03/2022,00:49:30,0.001,0.0,0.0,0.0
08/03/2022,00:50:29,-0.000,0.0,0.0,0.0
08/03/2022,00:51:30,0.000,0.0,0.0,0.0
08/03/2022,00:52:38,0.000,0.0,0.0,0.0
08/03/2022,00:53:30,0.000,0.0,0.0,0.0
08/03/2022,00:54:30,-0.001,0.0,0.0,0.0
08/03/2022,00:55:29,0.000,0.0,0.0,0.0
08/03/2022,00:56:30,0.000,0.0,0.0,0.0
08/03/2022,00:57:30,0.000,0.0,0.0,0.0
08/03/2022,00:58:30,0.000,0.0,0.0,0.0
08/03/2022,00:59:29,0.000,0.0,0.0,0.0
08/03/2022,01:00:46,0.000,0.0,0.0,0.0
08/03/2022,01:02:30,0.001,0.0,0.0,0.0
08/03/2022,01:03:30,-0.001,0.0,0.0,0.0
08/03/2022,01:04:30,-0.000,0.0,0.0,0.0
08/03/2022,01:05:29,-0.001,0.0,0.0,0.0
08/03/2022,01:06:30,-0.001,0.0,0.0,0.0
08/03/2022,01:07:30,0.000,0.0,0.0,0.0
08/03/2022,01:08:30,-0.001,0.0,0.0,0.0
08/03/2022,01:09:29,0.000,0.0,0.0,0.0
08/03/2022,01:10:30,0.000,0.0,0.0,0.0
08/03/2022,01:11:30,0.001,0.0,0.0,0.0
08/03/2022,01:12:30,0.000,0.0,0.0,0.0
08/03/2022,01:13:29,0.000,0.0,0.0,0.0
08/03/2022,01:14:29,0.001,0.0,0.0,0.0
08/03/2022,01:15:30,-0.000,0.0,0.0,0.0
08/03/2022,01:16:30,0.000,0.0,0.0,0.0
08/03/2022,01:17:30,0.000,0.0,0.0,0.0
08/03/2022,01:18:30,0.000,0.0,0.0,0.0
08/03/2022,01:19:29,0.000,0.0,0.0,0.0
08/03/2022,01:20:30,-0.001,0.0,0.0,0.0
08/03/2022,01:21:30,0.001,0.0,0.0,0.0
08/03/2022,01:22:29,0.001,0.0,0.0,0.0
08/03/2022,01:23:30,0.001,0.0,0.0,0.0
08/03/2022,01:24:38,-0.001,0.0,0.0,0.0
08/03/2022,01:25:30,0.000,0.0,0.0,0.0
08/03/2022,01:26:30,0.000,0.0,0.0,0.0
08/03/2022,01:27:30,0.000,0.0,0.0,0.0
08/03/2022,01:28:30,0.000,0.0,0.0,0.0
08/03/2022,01:29:30,-0.000,0.0,0.0,0.0
08/03/2022,01:30:30,0.000,0.0,0.0,0.0
08/03/2022,01:31:30,0.000,0.0,0.0,0.0
08/03/2022,01:32:30,0.000,0.0,0.0,0.0
08/03/2022,01:33:30,0.000,0.0,0.0,0.0
08/03/2022,01:34:30,0.000,0.0,0.0,0.0
08/03/2022,01:35:30,0.000,0.0,0.0,0.0
08/03/2022,01:36:29,0.000,0.0,0.0,0.0
08/03/2022,01:37:30,-0.000,0.0,0.0,0.0
08/03/2022,01:38:30,0.000,0.0,0.0,0.0
08/03/2022,01:39:31,0.000,0.0,0.0,0.0
08/03/2022,01:40:29,0.000,0.0,0.0,0.0
08/03/2022,01:41:30,0.000,0.0,0.0,0.0
08/03/2022,01:42:38,0.001,0.0,0.0,0.0
08/03/2022,01:43:30,0.001,0.0,0.0,0.0
08/03/2022,01:44:29,0.000,0.0,0.0,0.0
08/03/2022,01:45:30,-0.000,0.0,0.0,0.0
08/03/2022,01:46:30,0.000,0.0,0.0,0.0
08/03/2022,01:47:30,0.000,0.0,0.0,0.0
08/03/2022,01:48:30,-0.000,0.0,0.0,0.0
08/03/2022,01:49:30,0.000,0.0,0.0,0.0
08/03/2022,01:50:30,0.000,0.0,0.0,0.0
08/03/2022,01:51:30,0.000,0.0,0.0,0.0
08/03/2022,01:52:29,-0.000,0.0,0.0,0.0
08/03/2022,01:53:30,0.000,0.0,0.0,0.0
08/03/2022,01:54:30,-0.000,0.0,0.0,0.0
08/03/2022,01:55:30,0.001,0.0,0.0,0.0
08/03/2022,01:56:30,0.000,0.0,0.0,0.0
08/03/2022,01:57:30,0.000,0.0,0.0,0.0
08/03/2022,01:58:30,0.000,0.0,0.0,0.0
08/03/2022,01:59:30,0.000,0.0,0.0,0.0
08/03/2022,02:00:29,0.001,0.0,0.0,0.0
08/03/2022,02:01:30,0.001,0.0,0.0,0.0
08/03/2022,02:02:29,0.001,0.0,0.0,0.0
08/03/2022,02:03:30,0.000,0.0,0.0,0.0
08/03/2022,02:04:38,-0.000,0.0,0.0,0.0
08/03/2022,02:05:30,0.001,0.0,0.0,0.0
08/03/2022,02:06:30,0.000,0.0,0.0,0.0
08/03/2022,02:07:30,-0.000,0.0,0.0,0.0
08/03/2022,02:08:30,0.000,0.0,0.0,0.0
08/03/2022,02:09:31,-0.000,0.0,0.0,0.0
08/03/2022,02:10:30,0.000,0.0,0.0,0.0
08/03/2022,02:11:30,-0.000,0.0,0.0,0.0
08/03/2022,02:12:38,0.001,0.0,0.0,0.0
08/03/2022,02:13:30,0.000,0.0,0.0,0.0
08/03/2022,02:14:30,0.000,0.0,0.0,0.0
08/03/2022,02:15:30,-0.000,0.0,0.0,0.0
08/03/2022,02:16:30,0.001,0.0,0.0,0.0
08/03/2022,02:17:30,0.001,0.0,0.0,0.0
08/03/2022,02:18:30,0.000,0.0,0.0,0.0
08/03/2022,02:19:30,0.000,0.0,0.0,0.0
08/03/2022,02:20:30,0.001,0.0,0.0,0.0
08/03/2022,02:21:30,0.001,0.0,0.0,0.0
08/03/2022,02:22:30,0.000,0.0,0.0,0.0
08/03/2022,02:23:38,0.000,0.0,0.0,0.0
08/03/2022,02:24:31,0.000,0.0,0.0,0.0
08/03/2022,02:25:30,-0.000,0.0,0.0,0.0
08/03/2022,02:26:30,0.000,0.0,0.0,0.0
08/03/2022,02:27:30,0.001,0.0,0.0,0.0
08/03/2022,02:28:30,0.000,0.0,0.0,0.0
08/03/2022,02:29:29,-0.001,0.0,0.0,0.0
08/03/2022,02:30:30,0.000,0.0,0.0,0.0
08/03/2022,02:31:30,0.002,0.0,0.0,0.0
08/03/2022,02:32:30,0.000,0.0,0.0,0.0
08/03/2022,02:33:38,0.001,0.0,0.0,0.0
08/03/2022,02:34:38,0.000,0.0,0.0,0.0
08/03/2022,02:35:29,0.000,0.0,0.0,0.0
08/03/2022,02:36:30,0.001,0.0,0.0,0.0
08/03/2022,02:37:30,0.000,0.0,0.0,0.0
08/03/2022,02:38:30,0.000,0.0,0.0,0.0
08/03/2022,02:39:29,0.001,0.0,0.0,0.0
08/03/2022,02:40:30,0.000,0.0,0.0,0.0
08/03/2022,02:41:38,0.000,0.0,0.0,0.0
08/03/2022,02:42:30,-0.000,0.0,0.0,0.0
08/03/2022,02:43:30,0.000,0.0,0.0,0.0
08/03/2022,02:44:30,0.001,0.0,0.0,0.0
08/03/2022,02:45:29,0.000,0.0,0.0,0.0
08/03/2022,02:46:30,0.000,0.0,0.0,0.0
08/03/2022,02:47:30,0.000,0.0,0.0,0.0
08/03/2022,02:48:30,0.001,0.0,0.0,0.0
08/03/2022,02:49:38,0.001,0.0,0.0,0.0
08/03/2022,02:50:30,0.001,0.0,0.0,0.0
08/03/2022,02:51:30,0.000,0.0,0.0,0.0
08/03/2022,02:52:30,0.001,0.0,0.0,0.0
08/03/2022,02:53:30,-0.000,0.0,0.0,0.0
08/03/2022,02:54:30,0.000,0.0,0.0,0.0
08/03/2022,02:55:30,0.000,0.0,0.0,0.0
08/03/2022,02:56:30,0.000,0.0,0.0,0.0
08/03/2022,02:57:29,-0.001,0.0,0.0,0.0
08/03/2022,02:58:30,0.001,0.0,0.0,0.0
08/03/2022,02:59:29,0.000,0.0,0.0,0.0
08/03/2022,03:00:39,0.001,0.0,0.0,0.0
08/03/2022,03:01:30,0.000,0.0,0.0,0.0
08/03/2022,03:02:30,0.000,0.0,0.0,0.0
08/03/2022,03:03:30,0.001,0.0,0.0,0.0
08/03/2022,03:04:30,0.001,0.0,0.0,0.0
08/03/2022,03:06:22,0.000,0.0,0.0,0.0
08/03/2022,03:07:39,0.000,0.0,0.0,0.0
08/03/2022,03:08:28,0.001,0.0,0.0,0.0
08/03/2022,03:09:30,-0.001,0.0,0.0,0.0
08/03/2022,03:10:30,0.000,0.0,0.0,0.0
08/03/2022,03:11:30,0.000,0.0,0.0,0.0
08/03/2022,03:12:30,-0.001,0.0,0.0,0.0
08/03/2022,03:13:30,0.001,0.0,0.0,0.0
08/03/2022,03:14:30,0.000,0.0,0.0,0.0
08/03/2022,03:15:30,0.000,0.0,0.0,0.0
08/03/2022,03:16:30,0.001,0.0,0.0,0.0
08/03/2022,03:17:30,0.000,0.0,0.0,0.0
08/03/2022,03:18:39,0.000,0.0,0.0,0.0
08/03/2022,03:19:30,0.000,0.0,0.0,0.0
08/03/2022,03:20:30,0.001,0.0,0.0,0.0
08/03/2022,03:21:30,0.000,0.0,0.0,0.0
08/03/2022,03:22:30,0.000,0.0,0.0,0.0
08/03/2022,03:23:31,0.001,0.0,0.0,0.0
08/03/2022,03:24:30,0.000,0.0,0.0,0.0
08/03/2022,03:25:30,0.001,0.0,0.0,0.0
08/03/2022,03:26:38,0.000,0.0,0.0,0.0
08/03/2022,03:27:30,0.002,0.0,0.0,0.0
08/03/2022,03:28:30,0.001,0.0,0.0,0.0
08/03/2022,03:29:30,0.001,0.0,0.0,0.0
08/03/2022,03:30:30,0.001,0.0,0.0,0.0
08/03/2022,03:31:30,0.001,0.0,0.0,0.0
08/03/2022,03:32:30,0.001,0.0,0.0,0.0
08/03/2022,03:33:30,0.000,0.0,0.0,0.0
08/03/2022,03:34:30,0.000,0.0,0.0,0.0
08/03/2022,03:35:30,0.001,0.0,0.0,0.0
08/03/2022,03:36:31,-0.000,0.0,0.0,0.0
08/03/2022,03:37:38,0.000,0.0,0.0,0.0
08/03/2022,03:38:30,0.002,0.0,0.0,0.0
08/03/2022,03:39:30,0.001,0.0,0.0,0.0
08/03/2022,03:40:30,0.000,0.0,0.0,0.0
08/03/2022,03:41:30,0.000,0.0,0.0,0.0
08/03/2022,03:42:30,0.000,0.0,0.0,0.0
08/03/2022,03:43:30,-0.001,0.0,0.0,0.0
08/03/2022,03:44:30,0.000,0.0,0.0,0.0
08/03/2022,03:45:30,0.001,0.0,0.0,0.0
08/03/2022,03:46:30,-0.000,0.0,0.0,0.0
08/03/2022,03:47:30,0.000,0.0,0.0,0.0
08/03/2022,03:48:30,0.001,0.0,0.0,0.0
08/03/2022,03:49:30,-0.000,0.0,0.0,0.0
08/03/2022,03:50:30,0.000,0.0,0.0,0.0
08/03/2022,03:51:30,0.000,0.0,0.0,0.0
08/03/2022,03:52:39,0.000,0.0,0.0,0.0
08/03/2022,03:53:30,0.000,0.0,0.0,0.0
08/03/2022,03:54:31,0.000,0.0,0.0,0.0
08/03/2022,03:55:30,0.001,0.0,0.0,0.0
08/03/2022,03:56:30,0.001,0.0,0.0,0.0
08/03/2022,03:57:30,0.001,0.0,0.0,0.0
08/03/2022,03:58:30,0.001,0.0,0.0,0.0
08/03/2022,03:59:31,0.001,0.0,0.0,0.0
08/03/2022,04:00:31,0.000,0.0,0.0,0.0
08/03/2022,04:01:30,0.001,0.0,0.0,0.0
08/03/2022,04:02:30,0.001,0.0,0.0,0.0
08/03/2022,04:03:30,0.000,0.0,0.0,0.0
08/03/2022,04:04:30,0.001,0.0,0.0,0.0
08/03/2022,04:05:30,0.000,0.0,0.0,0.0
08/03/2022,04:06:30,0.001,0.0,0.0,0.0
08/03/2022,04:07:30,0.000,0.0,0.0,0.0
08/03/2022,04:08:30,-0.000,0.0,0.0,0.0
08/03/2022,04:09:30,0.001,0.0,0.0,0.0
08/03/2022,04:10:30,0.000,0.0,0.0,0.0
08/03/2022,04:11:30,0.001,0.0,0.0,0.0
08/03/2022,04:12:30,0.001,0.0,0.0,0.0
08/03/2022,04:13:31,0.001,0.0,0.0,0.0
08/03/2022,04:14:38,0.000,0.0,0.0,0.0
08/03/2022,04:15:30,0.000,0.0,0.0,0.0
08/03/2022,04:16:30,0.001,0.0,0.0,0.0
08/03/2022,04:17:30,0.001,0.0,0.0,0.0
08/03/2022,04:18:30,0.001,0.0,0.0,0.0
08/03/2022,04:19:30,0.001,0.0,0.0,0.0
08/03/2022,04:20:30,0.001,0.0,0.0,0.0
08/03/2022,04:21:30,0.000,0.0,0.0,0.0
08/03/2022,04:22:30,0.001,0.0,0.0,0.0
08/03/2022,04:23:30,0.000,0.0,0.0,0.0
08/03/2022,04:24:31,0.002,0.0,0.0,0.0
08/03/2022,04:25:30,-0.001,0.0,0.0,0.0
08/03/2022,04:26:30,0.002,0.0,0.0,0.0
08/03/2022,04:27:30,0.001,0.0,0.0,0.0
08/03/2022,04:28:30,0.001,0.0,0.0,0.0
08/03/2022,04:29:39,0.000,0.0,0.0,0.0
08/03/2022,04:30:30,0.001,0.0,0.0,0.0
08/03/2022,04:31:30,0.001,0.0,0.0,0.0
08/03/2022,04:32:30,0.000,0.0,0.0,0.0
08/03/2022,04:33:30,0.000,0.0,0.0,0.0
08/03/2022,04:34:30,-0.000,0.0,0.0,0.0
08/03/2022,04:35:30,-0.000,0.0,0.0,0.0
08/03/2022,04:36:30,0.000,0.0,0.0,0.0
08/03/2022,04:37:39,-0.000,0.0,0.0,0.0
08/03/2022,04:38:30,0.001,0.0,0.0,0.0
08/03/2022,04:39:30,0.000,0.0,0.0,0.0
08/03/2022,04:40:30,0.000,0.0,0.0,0.0
08/03/2022,04:41:30,0.000,0.0,0.0,0.0
08/03/2022,04:42:30,0.000,0.0,0.0,0.0
08/03/2022,04:43:30,0.001,0.0,0.0,0.0
08/03/2022,04:44:30,0.001,0.0,0.0,0.0
08/03/2022,04:45:30,0.001,0.0,0.0,0.0
08/03/2022,04:46:30,0.001,0.0,0.0,0.0
08/03/2022,04:47:30,0.000,0.0,0.0,0.0
08/03/2022,04:48:31,0.001,0.0,0.0,0.0
08/03/2022,04:49:31,0.001,0.0,0.0,0.0
08/03/2022,04:50:30,0.001,0.0,0.0,0.0
08/03/2022,04:51:30,0.001,0.0,0.0,0.0
08/03/2022,04:52:30,0.001,0.0,0.0,0.0
08/03/2022,04:53:30,0.000,0.0,0.0,0.0
08/03/2022,04:54:30,0.000,0.0,0.0,0.0
08/03/2022,04:55:30,0.001,0.0,0.0,0.0
08/03/2022,04:56:30,0.000,0.0,0.0,0.0
08/03/2022,04:57:31,-0.000,0.0,0.0,0.0
08/03/2022,04:58:31,-0.001,0.0,0.0,0.0
08/03/2022,04:59:39,0.000,0.0,0.0,0.0
08/03/2022,05:00:30,0.001,0.0,0.0,0.0
08/03/2022,05:01:30,0.001,0.0,0.0,0.0
08/03/2022,05:02:30,0.000,0.0,0.0,0.0
08/03/2022,05:03:30,0.000,0.0,0.0,0.0
08/03/2022,05:04:30,0.001,0.0,0.0,0.0
08/03/2022,05:05:30,0.001,0.0,0.0,0.0
08/03/2022,05:06:30,0.000,0.0,0.0,0.0
08/03/2022,05:07:30,0.000,0.0,0.0,0.0
08/03/2022,05:08:31,0.000,0.0,0.0,0.0
08/03/2022,05:09:30,0.000,0.0,0.0,0.0
08/03/2022,05:10:31,-0.000,0.0,0.0,0.0
08/03/2022,05:11:30,0.001,0.0,0.0,0.0
08/03/2022,05:12:30,0.000,0.0,0.0,0.0
08/03/2022,05:13:31,0.000,0.0,0.0,0.0
08/03/2022,05:14:31,0.001,0.0,0.0,0.0
08/03/2022,05:15:30,0.001,0.0,0.0,0.0
08/03/2022,05:16:30,0.001,0.0,0.0,0.0
08/03/2022,05:17:30,0.000,0.0,0.0,0.0
08/03/2022,05:18:30,0.001,0.0,0.0,0.0
08/03/2022,05:19:30,0.000,0.0,0.0,0.0
08/03/2022,05:20:30,0.000,0.0,0.0,0.0
08/03/2022,05:21:30,0.001,0.0,0.0,0.0
08/03/2022,05:22:39,0.000,0.0,0.0,0.0
08/03/2022,05:23:29,0.000,0.0,0.0,0.0
08/03/2022,05:24:31,0.000,0.0,0.0,0.0
08/03/2022,05:25:38,0.001,0.0,0.0,0.0
08/03/2022,05:26:30,0.000,0.0,0.0,0.0
08/03/2022,05:27:31,0.000,0.0,0.0,0.0
08/03/2022,05:28:17,0.001,0.0,0.0,0.0
08/03/2022,05:29:31,0.001,0.0,0.0,0.0
08/03/2022,05:30:30,0.001,0.0,0.0,0.0
08/03/2022,05:31:30,0.001,0.0,0.0,0.0
08/03/2022,05:32:30,0.001,0.0,0.0,0.0
08/03/2022,05:33:39,0.000,0.0,0.0,0.0
08/03/2022,05:34:30,0.001,0.0,0.0,0.0
08/03/2022,05:35:30,0.001,0.0,0.0,0.0
08/03/2022,05:36:39,-0.001,0.0,0.0,0.0
08/03/2022,05:37:39,0.001,0.0,0.0,0.0
08/03/2022,05:38:30,0.001,0.0,0.0,0.0
08/03/2022,05:39:30,0.001,0.0,0.0,0.0
08/03/2022,05:40:30,0.002,0.0,0.0,0.0
08/03/2022,05:41:30,0.001,0.0,0.0,0.0
08/03/2022,05:42:30,0.000,0.0,0.0,0.0
08/03/2022,05:43:30,0.000,0.0,0.0,0.0
08/03/2022,05:44:38,-0.001,0.0,0.0,0.0
08/03/2022,05:45:30,0.000,0.0,0.0,0.0
08/03/2022,05:46:30,-0.001,0.0,0.0,0.0
08/03/2022,05:47:30,0.001,0.0,0.0,0.0
08/03/2022,05:48:31,0.000,0.0,0.0,0.0
08/03/2022,05:49:30,0.001,0.0,0.0,0.0
08/03/2022,05:50:31,0.001,0.0,0.0,0.0
08/03/2022,05:51:30,0.000,0.0,0.0,0.0
08/03/2022,05:52:30,0.000,0.0,0.0,0.0
08/03/2022,05:53:30,0.000,0.0,0.0,0.0
08/03/2022,05:54:30,0.001,0.0,0.0,0.0
08/03/2022,05:55:22,0.000,0.0,0.0,0.0
08/03/2022,05:56:31,0.002,0.0,0.0,0.0
08/03/2022,05:57:30,0.001,0.0,0.0,0.0
08/03/2022,05:58:31,-0.000,0.0,0.0,0.0
08/03/2022,05:59:38,0.001,0.0,0.0,0.0
08/03/2022,06:00:30,0.000,0.0,0.0,0.0
08/03/2022,06:01:31,0.000,0.0,0.0,0.0
08/03/2022,06:02:30,0.001,0.0,0.0,0.0
08/03/2022,06:03:30,-0.000,0.0,0.0,0.0
08/03/2022,06:04:30,0.000,0.0,0.0,0.0
08/03/2022,06:05:30,0.001,0.0,0.0,0.0
08/03/2022,06:06:31,0.000,0.0,0.0,0.0
08/03/2022,06:07:30,0.001,0.0,0.0,0.0
08/03/2022,06:08:30,0.000,0.0,0.0,0.0
08/03/2022,06:09:30,0.001,0.0,0.0,0.0
08/03/2022,06:10:30,0.001,0.0,0.0,0.0
08/03/2022,06:11:32,0.000,0.0,0.0,0.0
08/03/2022,06:12:30,0.001,0.0,0.0,0.0
08/03/2022,06:13:30,0.000,0.0,0.0,0.0
08/03/2022,06:14:31,0.001,0.0,0.0,0.0
08/03/2022,06:15:31,0.001,0.0,0.0,0.0
08/03/2022,06:16:30,-0.000,0.0,0.0,0.0
08/03/2022,06:17:30,0.000,0.0,0.0,0.0
08/03/2022,06:18:38,0.001,0.0,0.0,0.0
08/03/2022,06:19:30,0.001,0.0,0.0,0.0
08/03/2022,06:20:31,0.001,0.0,0.0,0.0
08/03/2022,06:21:31,0.001,0.0,0.0,0.0
08/03/2022,06:22:30,0.001,0.0,0.0,0.0
08/03/2022,06:23:30,-0.000,0.0,0.0,0.0
08/03/2022,06:24:30,0.001,0.0,0.0,0.0
08/03/2022,06:25:30,0.001,0.0,0.0,0.0
08/03/2022,06:26:38,0.001,0.0,0.0,0.0
08/03/2022,06:27:30,0.000,0.0,0.0,0.0
08/03/2022,06:28:31,0.002,0.0,0.0,0.0
08/03/2022,06:29:30,0.001,0.0,0.0,0.0
08/03/2022,06:30:30,0.001,0.0,0.0,0.0
08/03/2022,06:31:31,0.001,0.0,0.0,0.0
08/03/2022,06:32:31,0.001,0.0,0.0,0.0
08/03/2022,06:33:31,0.001,0.0,0.0,0.0
08/03/2022,06:34:30,0.002,0.0,0.0,0.0
08/03/2022,06:35:30,0.002,0.0,0.0,0.0
08/03/2022,06:36:31,0.002,0.0,0.0,0.0
08/03/2022,06:37:30,0.003,0.0,0.0,0.0
08/03/2022,06:38:30,0.002,0.0,0.0,0.0
08/03/2022,06:39:30,0.002,0.0,0.0,0.0
08/03/2022,06:40:31,0.002,0.0,0.0,0.0
08/03/2022,06:41:31,0.004,0.0,0.0,0.0
08/03/2022,06:42:30,0.003,0.0,0.0,0.0
08/03/2022,06:43:30,0.003,0.0,0.0,0.0
08/03/2022,06:44:30,0.003,0.0,0.0,0.0
08/03/2022,06:45:31,0.003,0.0,0.0,0.0
08/03/2022,06:46:30,0.004,0.0,0.0,0.0
08/03/2022,06:47:30,0.003,0.0,0.0,0.0
08/03/2022,06:48:31,0.004,0.0,0.0,0.0
08/03/2022,06:49:31,0.005,0.0,0.0,0.0
08/03/2022,06:50:30,0.005,0.0,0.0,0.0
08/03/2022,06:51:30,0.005,0.0,0.0,0.0
08/03/2022,06:52:39,0.005,0.0,0.0,0.0
08/03/2022,06:53:30,0.004,0.0,0.0,0.0
08/03/2022,06:54:30,0.005,0.0,0.0,0.0
08/03/2022,06:55:30,0.006,0.0,0.0,0.0
08/03/2022,06:56:31,0.006,0.0,0.0,0.0
08/03/2022,06:57:31,0.006,0.0,0.0,0.0
08/03/2022,06:58:30,0.007,0.0,0.0,0.0
08/03/2022,06:59:30,0.007,0.0,0.0,0.0
08/03/2022,07:00:38,0.008,0.0,0.001,0.001
08/03/2022,07:01:30,0.008,0.0,0.001,0.0
08/03/2022,07:02:31,0.008,0.0,0.001,0.0
08/03/2022,07:03:30,0.009,0.0,0.001,0.0
08/03/2022,07:04:30,0.009,0.0,0.001,0.0
08/03/2022,07:05:30,0.009,0.0,0.001,0.0
08/03/2022,07:06:30,0.011,0.0,0.001,0.0
08/03/2022,07:07:30,0.010,0.0,0.002,0.001
08/03/2022,07:08:39,0.011,0.0,0.002,0.0
08/03/2022,07:09:29,0.011,0.0,0.002,0.0
08/03/2022,07:10:30,0.012,0.0,0.002,0.0
08/03/2022,07:11:31,0.013,0.0,0.002,0.0
08/03/2022,07:12:31,0.013,0.0,0.003,0.001
08/03/2022,07:13:47,0.014,0.0,0.003,0.0
08/03/2022,07:15:30,0.014,0.0,0.003,0.0
08/03/2022,07:16:30,0.015,0.0,0.003,0.0
08/03/2022,07:17:30,0.015,0.0,0.004,0.001
08/03/2022,07:18:39,0.016,0.0,0.004,0.0
08/03/2022,07:19:39,0.016,0.0,0.004,0.0
08/03/2022,07:20:31,0.017,0.0,0.005,0.001
08/03/2022,07:21:31,0.018,0.0,0.005,0.0
08/03/2022,07:22:31,0.018,0.0,0.005,0.0
08/03/2022,07:23:30,0.019,0.0,0.005,0.0
08/03/2022,07:24:30,0.019,0.0,0.006,0.001
08/03/2022,07:25:31,0.020,0.0,0.006,0.0
08/03/2022,07:26:31,0.021,0.0,0.006,0.0
08/03/2022,07:27:39,0.022,0.0,0.007,0.001
08/03/2022,07:28:30,0.022,0.0,0.007,0.0
08/03/2022,07:29:31,0.023,0.0,0.008,0.001
08/03/2022,07:30:31,0.024,0.0,0.008,0.0
08/03/2022,07:31:30,0.024,0.0,0.008,0.0
08/03/2022,07:32:30,0.026,0.0,0.009,0.001
08/03/2022,07:33:30,0.027,0.0,0.009,0.0
08/03/2022,07:34:31,0.027,0.0,0.01,0.001
08/03/2022,07:35:30,0.029,0.0,0.01,0.0
08/03/2022,07:36:30,0.029,0.0,0.011,0.001
08/03/2022,07:37:39,0.030,0.0,0.011,0.0
08/03/2022,07:38:30,0.031,0.0,0.012,0.001
08/03/2022,07:39:30,0.031,0.0,0.012,0.0
08/03/2022,07:40:30,0.032,0.0,0.013,0.001
08/03/2022,07:41:31,0.033,0.0,0.013,0.0
08/03/2022,07:42:31,0.034,0.0,0.014,0.001
08/03/2022,07:43:30,0.035,0.0,0.014,0.0
08/03/2022,07:44:30,0.036,0.0,0.015,0.001
08/03/2022,07:45:30,0.037,0.0,0.015,0.0
08/03/2022,07:46:30,0.039,0.0,0.016,0.001
08/03/2022,07:47:30,0.039,0.0,0.017,0.001
08/03/2022,07:48:31,0.041,0.0,0.017,0.0
08/03/2022,07:49:31,0.042,0.0,0.018,0.001
08/03/2022,07:50:30,0.042,0.0,0.019,0.001
08/03/2022,07:51:30,0.044,0.0,0.02,0.001
08/03/2022,07:52:31,0.045,0.0,0.02,0.0
08/03/2022,07:53:39,0.046,0.0,0.021,0.001
08/03/2022,07:54:30,0.048,0.0,0.022,0.001
08/03/2022,07:55:30,0.049,0.0,0.023,0.001
08/03/2022,07:56:30,0.050,0.0,0.023,0.0
08/03/2022,07:57:31,0.050,0.0,0.024,0.001
08/03/2022,07:58:31,0.053,0.0,0.025,0.001
08/03/2022,07:59:30,0.054,0.0,0.026,0.001
08/03/2022,08:00:31,0.055,0.0,0.027,0.001
08/03/2022,08:01:30,0.057,0.0,0.028,0.001
08/03/2022,08:02:30,0.058,0.0,0.029,0.001
08/03/2022,08:03:31,0.059,0.0,0.03,0.001
08/03/2022,08:04:31,0.061,0.0,0.031,0.001
08/03/2022,08:05:30,0.062,0.0,0.032,0.001
08/03/2022,08:06:30,0.063,0.0,0.033,0.001
08/03/2022,08:07:31,0.065,0.0,0.034,0.001
08/03/2022,08:08:30,0.067,0.0,0.035,0.001
08/03/2022,08:09:30,0.068,0.0,0.036,0.001
08/03/2022,08:10:30,0.070,0.0,0.037,0.001
08/03/2022,08:11:30,0.071,0.0,0.039,0.002
08/03/2022,08:12:39,0.074,0.0,0.04,0.001
08/03/2022,08:13:31,0.074,0.0,0.041,0.001
08/03/2022,08:14:31,0.075,0.0,0.042,0.001
08/03/2022,08:15:30,0.078,0.0,0.043,0.001
08/03/2022,08:16:30,0.079,0.0,0.045,0.002
08/03/2022,08:17:30,0.081,0.0,0.046,0.001
08/03/2022,08:18:31,0.083,0.0,0.048,0.002
08/03/2022,08:19:31,0.084,0.0,0.049,0.001
08/03/2022,08:20:39,0.086,0.0,0.051,0.002
08/03/2022,08:21:31,0.088,0.0,0.052,0.001
08/03/2022,08:22:30,0.091,0.0,0.053,0.001
08/03/2022,08:23:30,0.092,0.0,0.055,0.002
08/03/2022,08:24:30,0.094,0.0,0.056,0.001
08/03/2022,08:25:31,0.096,0.0,0.058,0.002
08/03/2022,08:26:30,0.098,0.0,0.06,0.002
08/03/2022,08:27:30,0.100,0.0,0.061,0.001
08/03/2022,08:28:39,0.102,0.0,0.063,0.002
08/03/2022,08:29:29,0.103,0.0,0.064,0.001
08/03/2022,08:30:31,0.106,0.0,0.066,0.002
08/03/2022,08:31:30,0.107,0.0,0.068,0.002
08/03/2022,08:32:30,0.108,0.0,0.07,0.002
08/03/2022,08:33:31,0.111,0.0,0.072,0.002
08/03/2022,08:34:31,0.115,0.0,0.074,0.002
08/03/2022,08:35:31,0.116,0.0,0.075,0.001
08/03/2022,08:36:30,0.117,0.0,0.077,0.002
08/03/2022,08:37:30,0.120,0.0,0.079,0.002
08/03/2022,08:38:30,0.122,0.0,0.081,0.002
08/03/2022,08:39:38,0.125,0.0,0.084,0.003
08/03/2022,08:40:30,0.127,0.0,0.086,0.002
08/03/2022,08:41:31,0.129,0.0,0.088,0.002
08/03/2022,08:42:31,0.131,0.0,0.09,0.002
08/03/2022,08:43:30,0.134,0.0,0.092,0.002
08/03/2022,08:44:30,0.136,0.0,0.094,0.002
08/03/2022,08:45:31,0.139,0.0,0.097,0.003
08/03/2022,08:46:41,0.142,0.0,0.099,0.002
08/03/2022,08:47:31,0.144,0.0,0.101,0.002
08/03/2022,08:48:30,0.146,0.0,0.104,0.003
08/03/2022,08:49:39,0.150,0.0,0.107,0.003
08/03/2022,08:50:31,0.151,0.0,0.109,0.002
08/03/2022,08:51:30,0.154,0.0,0.111,0.002
08/03/2022,08:52:30,0.157,0.0,0.114,0.003
08/03/2022,08:53:30,0.158,0.0,0.116,0.002
08/03/2022,08:54:30,0.161,0.0,0.119,0.003
08/03/2022,08:55:30,0.163,0.0,0.122,0.003
08/03/2022,08:56:31,0.165,0.0,0.125,0.003
08/03/2022,08:57:39,0.169,0.0,0.128,0.003
08/03/2022,08:58:31,0.170,0.0,0.13,0.002
08/03/2022,08:59:31,0.174,0.0,0.133,0.003
08/03/2022,09:00:39,0.177,0.0,0.136,0.003
08/03/2022,09:01:30,0.178,0.0,0.139,0.003
08/03/2022,09:02:30,0.183,0.0,0.142,0.003
08/03/2022,09:03:31,0.185,0.0,0.145,0.003
08/03/2022,09:05:31,0.189,0.0,0.151,0.006
08/03/2022,09:06:30,0.193,0.0,0.154,0.003
08/03/2022,09:07:30,0.195,0.0,0.158,0.004
08/03/2022,09:08:31,0.198,0.0,0.161,0.003
08/03/2022,09:09:31,0.201,0.0,0.164,0.003
08/03/2022,09:10:30,0.204,0.0,0.168,0.004
08/03/2022,09:11:30,0.207,0.0,0.171,0.003
08/03/2022,09:12:30,0.210,0.0,0.175,0.004
08/03/2022,09:13:31,0.213,0.0,0.178,0.003
08/03/2022,09:14:31,0.215,0.0,0.182,0.004
08/03/2022,09:15:31,0.219,1.0,0.185,0.003
08/03/2022,09:16:31,0.222,1.0,0.189,0.004
08/03/2022,09:17:30,0.224,1.0,0.193,0.004
08/03/2022,09:18:32,0.228,1.0,0.197,0.004
08/03/2022,09:19:31,0.231,1.0,0.2,0.003
08/03/2022,09:20:31,0.234,1.0,0.204,0.004
08/03/2022,09:21:39,0.237,1.0,0.209,0.005
08/03/2022,09:22:30,0.239,1.0,0.212,0.003
08/03/2022,09:23:31,0.243,1.0,0.216,0.004
08/03/2022,09:24:31,0.245,1.0,0.22,0.004
08/03/2022,09:25:31,0.249,1.0,0.224,0.004
08/03/2022,09:26:31,0.252,1.0,0.228,0.004
08/03/2022,09:27:30,0.255,1.0,0.233,0.005
08/03/2022,09:28:31,0.258,1.0,0.237,0.004
08/03/2022,09:29:31,0.261,1.0,0.241,0.004
08/03/2022,09:30:30,0.265,1.0,0.246,0.005
08/03/2022,09:31:30,0.267,1.0,0.25,0.004
08/03/2022,09:32:39,0.271,1.0,0.255,0.005
08/03/2022,09:33:31,0.274,1.0,0.259,0.004
08/03/2022,09:34:31,0.276,1.0,0.264,0.005
08/03/2022,09:35:30,0.280,1.0,0.268,0.004
08/03/2022,09:36:31,0.283,1.0,0.273,0.005
08/03/2022,09:37:31,0.288,1.0,0.278,0.005
08/03/2022,09:38:31,0.290,1.0,0.283,0.005
08/03/2022,09:39:31,0.292,1.0,0.287,0.004
08/03/2022,09:40:31,0.296,1.0,0.292,0.005
08/03/2022,09:41:30,0.299,1.0,0.297,0.005
08/03/2022,09:42:39,0.303,1.0,0.303,0.006
08/03/2022,09:43:30,0.306,1.0,0.307,0.004
08/03/2022,09:44:31,0.309,1.0,0.312,0.005
08/03/2022,09:45:31,0.311,1.0,0.318,0.006
08/03/2022,09:46:31,0.315,1.0,0.323,0.005
08/03/2022,09:47:31,0.318,1.0,0.328,0.005
08/03/2022,09:48:31,0.321,1.0,0.333,0.005
08/03/2022,09:49:30,0.324,1.0,0.339,0.006
08/03/2022,09:50:30,0.327,1.0,0.344,0.005
08/03/2022,09:51:30,0.330,1.0,0.35,0.006
08/03/2022,09:52:31,0.334,1.0,0.355,0.005
08/03/2022,09:53:31,0.336,1.0,0.361,0.006
08/03/2022,09:54:31,0.340,1.0,0.367,0.006
08/03/2022,09:55:30,0.344,1.0,0.372,0.005
08/03/2022,09:56:39,0.348,1.0,0.379,0.007
08/03/2022,09:57:29,0.352,1.0,0.384,0.005
08/03/2022,09:58:31,0.354,1.0,0.39,0.006
08/03/2022,09:59:30,0.357,1.0,0.396,0.006
08/03/2022,10:00:31,0.361,1.0,0.402,0.006
08/03/2022,10:01:30,0.363,1.0,0.408,0.006
08/03/2022,10:02:30,0.367,1.0,0.414,0.006
08/03/2022,10:03:31,0.370,1.0,0.42,0.006
08/03/2022,10:04:31,0.371,1.0,0.426,0.006
08/03/2022,10:05:30,0.375,1.0,0.432,0.006
08/03/2022,10:06:39,0.379,1.0,0.439,0.007
08/03/2022,10:07:31,0.383,1.0,0.445,0.006
08/03/2022,10:08:31,0.386,1.0,0.451,0.006
08/03/2022,10:09:31,0.389,1.0,0.458,0.007
08/03/2022,10:10:30,0.392,1.0,0.464,0.006
08/03/2022,10:11:31,0.397,1.0,0.471,0.007
08/03/2022,10:12:30,0.399,1.0,0.477,0.006
08/03/2022,10:13:31,0.404,1.0,0.484,0.007
08/03/2022,10:14:31,0.407,1.0,0.491,0.007
08/03/2022,10:15:31,0.410,1.0,0.498,0.007
08/03/2022,10:16:39,0.413,1.0,0.505,0.007
08/03/2022,10:17:31,0.419,1.0,0.511,0.006